Date String (YYYY-MM-DD hh:mm:ss) UTC,Instrument flags,Ambient pressure (hPa),Sample flow (lpm),Bypass flow (lpm),Sample temperature (°C),Ambient temperature (°C),ASC tube jacket temperature (°C),LED temperature (°C),Box temperature (°C),Sample RH (%),Span deviation,Mass concentration (μg/m³),Mass concentration (μg/m³),Mass concentration (μg/m³)
DateTimeUTC,F1_M11,P_M11,Q1_M11,Q2_M11,T1_M11,T2_M11,T3_M11,T4_M11,T5_M11,U1_M11,ZSPAN_M11,X0_M11,X2_M11,X1_M11
2022-03-06 16:00:00,,0824.9,4.98,0.00,21.5,22.3,00.0,30.4,23.5,11.4,0000.0,0006.32,0004.34,0004.12
2022-03-06 16:01:00,,0824.9,5.00,0.00,21.5,21.9,00.0,30.4,23.4,11.4,0000.0,0006.28,0004.32,0004.09
2022-03-06 16:02:00,,0824.9,4.99,0.00,21.6,21.6,00.0,30.4,23.3,11.3,0000.0,0006.34,0004.36,0004.12
2022-03-06 16:03:00,,0824.9,5.01,0.00,21.5,21.4,00.0,30.4,23.3,11.2,0000.0,0006.37,0004.39,0004.16
2022-03-06 16:04:00,,0824.9,5.00,0.00,21.5,21.2,00.0,30.4,23.3,11.1,0000.0,0006.59,0004.43,0004.19
2022-03-06 16:05:00,,0824.9,4.99,0.00,21.5,21.1,00.0,30.4,23.2,11.2,0000.0,0006.73,0004.45,0004.20
2022-03-06 16:06:00,,0824.8,5.00,0.00,21.5,20.9,00.0,30.4,23.2,11.2,0000.0,0006.76,0004.47,0004.22
2022-03-06 16:07:00,,0824.8,5.00,0.00,21.5,20.9,00.0,30.4,23.2,11.3,0000.0,0006.80,0004.50,0004.25
2022-03-06 16:08:00,,0824.8,5.00,0.00,21.5,20.8,00.0,30.4,23.2,11.4,0000.0,0006.85,0004.53,0004.29
2022-03-06 16:09:00,,0824.8,5.00,0.00,21.5,20.8,00.0,30.4,23.2,11.4,0000.0,0006.90,0004.57,0004.33
2022-03-06 16:10:00,,0824.8,5.00,0.00,21.5,20.8,00.0,30.4,23.2,11.5,0000.0,0006.99,0004.61,0004.38
2022-03-06 16:11:00,,0824.8,5.01,0.00,21.5,20.8,00.0,30.4,23.2,11.5,0000.0,0006.57,0004.64,0004.42
2022-03-06 16:12:00,,0824.8,4.99,0.00,21.5,20.8,00.0,30.4,23.2,11.6,0000.0,0006.50,0004.65,0004.46
2022-03-06 16:13:00,,0824.8,5.01,0.00,21.4,20.7,00.0,30.4,23.1,11.6,0000.0,0006.50,0004.63,0004.45
2022-03-06 16:14:00,,0824.9,5.00,0.00,21.4,20.6,00.0,30.4,23.1,11.7,0000.0,0006.83,0004.61,0004.42
2022-03-06 16:15:00,,0824.9,5.00,0.00,21.4,20.6,00.0,30.4,23.0,11.7,0000.0,0007.06,0004.57,0004.39
2022-03-06 16:16:00,,0824.9,5.00,0.00,21.3,20.5,00.0,30.4,23.0,11.7,0000.0,0006.91,0004.55,0004.38
2022-03-06 16:17:00,,0824.8,5.00,0.00,21.3,20.6,00.0,30.4,23.0,11.6,0000.0,0006.88,0004.54,0004.38
2022-03-06 16:18:00,,0824.9,4.99,0.00,21.4,21.5,00.0,30.4,23.2,11.5,0000.0,0006.90,0004.56,0004.41
2022-03-06 16:19:00,,0824.9,5.01,0.00,21.6,22.6,00.0,30.5,23.6,11.5,0000.0,0007.06,0004.61,0004.44
2022-03-06 16:20:00,,0824.9,4.99,0.00,21.8,22.9,00.0,30.5,23.8,11.3,0000.0,0007.17,0004.65,0004.46
2022-03-06 16:21:00,,0824.9,5.01,0.00,21.9,22.6,00.0,30.6,23.8,11.3,0000.0,0007.16,0004.67,0004.49
2022-03-06 16:22:00,,0824.9,5.00,0.00,21.9,22.4,00.0,30.6,23.8,11.3,0000.0,0007.26,0004.72,0004.52
2022-03-06 16:23:00,,0824.9,4.99,0.00,21.9,22.1,00.0,30.6,23.8,11.3,0000.0,0007.39,0004.77,0004.55
2022-03-06 16:24:00,,0824.8,4.99,0.00,21.9,21.9,00.0,30.6,23.7,11.3,0000.0,0007.44,0004.82,0004.60
2022-03-06 16:25:00,,0824.8,5.01,0.00,21.9,21.7,00.0,30.7,23.7,11.4,0000.0,0007.20,0004.87,0004.66
2022-03-06 16:26:00,,0824.7,5.00,0.00,21.9,21.6,00.0,30.7,23.6,11.5,0000.0,0006.96,0004.94,0004.71
2022-03-06 16:27:00,,0824.8,5.00,0.00,21.8,21.4,00.0,30.7,23.6,11.5,0000.0,0007.04,0004.98,0004.75
2022-03-06 16:28:00,,0824.8,4.99,0.00,21.8,21.3,00.0,30.7,23.5,11.3,0000.0,0007.06,0005.00,0004.77
2022-03-06 16:29:00,,0824.9,4.99,0.00,21.8,21.1,00.0,30.7,23.4,11.3,0000.0,0007.10,0005.01,0004.77
2022-03-06 16:30:00,,0824.8,5.00,0.00,21.7,21.0,00.0,30.7,23.4,11.4,0000.0,0007.14,0005.03,0004.80
2022-03-06 16:31:00,,0824.9,5.01,0.00,21.7,21.0,00.0,30.7,23.4,11.3,0000.0,0007.08,0005.03,0004.81
2022-03-06 16:32:00,,0824.9,5.00,0.00,21.7,21.0,00.0,30.7,23.4,11.3,0000.0,0007.06,0005.03,0004.82
2022-03-06 16:33:00,,0824.9,5.00,0.00,21.7,20.9,00.0,30.7,23.3,11.3,0000.0,0007.02,0005.02,0004.82
2022-03-06 16:34:00,,0824.9,5.01,0.00,21.6,20.9,00.0,30.7,23.3,11.3,0000.0,0006.85,0005.00,0004.82
2022-03-06 16:35:00,,0824.9,4.99,0.00,21.6,20.8,00.0,30.6,23.2,11.2,0000.0,0006.78,0005.00,0004.83
2022-03-06 16:36:00,,0824.9,5.00,0.00,21.6,20.8,00.0,30.6,23.2,11.2,0000.0,0006.82,0005.02,0004.84
2022-03-06 16:37:00,,0824.9,5.00,0.00,21.5,20.7,00.0,30.6,23.2,11.2,0000.0,0006.82,0005.05,0004.88
2022-03-06 16:38:00,,0824.9,5.00,0.00,21.5,20.6,00.0,30.6,23.1,11.1,0000.0,0006.86,0005.10,0004.94
2022-03-06 16:39:00,,0824.8,5.00,0.00,21.5,20.6,00.0,30.6,23.1,11.0,0000.0,0006.99,0005.17,0005.02
2022-03-06 16:40:00,,0824.9,5.01,0.00,21.5,20.6,00.0,30.6,23.1,11.1,0000.0,0007.09,0005.23,0005.09
2022-03-06 16:41:00,,0824.8,5.00,0.00,21.5,20.6,00.0,30.6,23.1,11.1,0000.0,0007.11,0005.28,0005.14
2022-03-06 16:42:00,,0824.9,5.00,0.00,21.5,21.1,00.0,30.6,23.2,11.0,0000.0,0007.21,0005.32,0005.18
2022-03-06 16:43:00,,0824.9,5.01,0.00,21.6,22.1,00.0,30.6,23.5,10.8,0000.0,0007.43,0005.40,0005.26
2022-03-06 16:44:00,,0825.0,5.00,0.00,21.8,22.9,00.0,30.7,23.9,10.7,0000.0,0007.76,0005.49,0005.33
2022-03-06 16:45:00,,0825.1,4.99,0.00,21.9,22.8,00.0,30.7,24.0,10.6,0000.0,0007.89,0005.57,0005.40
2022-03-06 16:46:00,,0825.1,5.01,0.00,22.0,22.5,00.0,30.7,23.9,10.6,0000.0,0007.97,0005.65,0005.47
2022-03-06 16:47:00,,0825.0,4.99,0.00,22.0,22.3,00.0,30.7,23.9,10.7,0000.0,0007.92,0005.60,0005.44
2022-03-06 16:48:00,,0825.0,5.00,0.00,22.0,22.1,00.0,30.8,23.8,10.8,0000.0,0007.83,0005.51,0005.36
2022-03-06 16:49:00,,0825.0,5.01,0.00,22.0,21.9,00.0,30.8,23.7,10.8,0000.0,0007.72,0005.39,0005.24
2022-03-06 16:50:00,,0825.0,5.00,0.00,21.9,21.7,00.0,30.8,23.7,10.7,0000.0,0007.58,0005.24,0005.09
2022-03-06 16:51:00,,0824.9,5.00,0.00,21.9,21.6,00.0,30.8,23.6,10.7,0000.0,0007.53,0005.11,0004.93
2022-03-06 16:52:00,,0825.0,5.00,0.00,21.9,21.5,00.0,30.8,23.6,10.7,0000.0,0007.42,0004.95,0004.77
2022-03-06 16:53:00,,0825.0,5.00,0.00,21.9,21.4,00.0,30.8,23.5,10.7,0000.0,0007.14,0004.78,0004.61
2022-03-06 16:54:00,,0825.0,5.00,0.00,21.9,21.3,00.0,30.8,23.5,10.7,0000.0,0006.67,0004.60,0004.43
2022-03-06 16:55:00,,0825.0,4.99,0.00,21.8,21.3,00.0,30.8,23.5,10.7,0000.0,0005.95,0004.40,0004.24
2022-03-06 16:56:00,,0825.1,5.00,0.00,21.8,21.4,00.0,30.8,23.5,10.7,0000.0,0005.64,0004.20,0004.05
2022-03-06 16:57:00,,0825.1,4.99,0.00,21.9,22.1,00.0,30.9,23.7,10.7,0000.0,0005.26,0003.98,0003.83
2022-03-06 16:58:00,,0825.1,5.00,0.00,22.1,22.9,00.0,30.9,24.0,10.5,0000.0,0004.98,0003.83,0003.68
2022-03-06 16:59:00,,0825.1,5.01,0.00,22.2,23.1,00.0,31.0,24.2,10.4,0000.0,0004.78,0003.69,0003.54
